Showing default

EUTE 8 WEST B, 40875

Orbit data source: Space-Track

EUTE 8 WEST B, 40875 is a payload satellite owned by EutelsatSA (FR) in GEO that was launched on Thu, 20 Aug 2015 UTC via an ARIANE 5ECA launch vehicle from the French Guiana (FRGUI). Payload-class satellites include a variety of spacecraft equipped with specific instruments for various scientific and technological missions. These include communications satellites like Starlink; space stations such as the ISS; scientific satellites like the Hubble; Earth observation satellites from companies like Planet Labs, Umbra, and HawkEye 360; GPS; miniature CubeSats for education and research; and military/defense satellites.

Not visible in the next 10 days
Identifier
40875, 2015-039B
Orbit
GEO
Country
Flag of FRFR / EUTE
Related business
Manufacturer
Thales Alenia
Mission
Operational Commercial Communications
Bus & Motor
SPACEBUS 4000C4, S400
Mass
5,782 kg wet, ~3,000 kg dry
Launch date (UTC)
2015-08-20 (11 years ago)
Launch vehicle
ARIANE 5ECA
Launch site
French Guiana (FRGUI)
Object type
Payload
Rocket body
Debris
Shape & HBR
Box + 2 Pan, 18.5 m
Radar Cross Section
31.794 m², Large (>1 m²)

Expand to show TLE details & history
Last TLE update: 2 days ago

TLE from 2 days ago
0 EUTE 8 WEST B
1 40875U 15039B   26171.39042381 -.00000070  00000-0  00000+0 0  9996
2 40875   0.0624 352.8456 0003869  93.5427 314.7707  1.00271553 39686
Epoch: 2026-06-20T09:22Z
TLE epoch observation values (Epoch: 2026-06-20T09:22:12.617Z)
Latitude
0.05975°
Longitude
-8.01886°
Altitude
35,774.611 km
Speed
3.076 km/s
True Right ascension
02h 44m 33s
True Declination
0° 03' 35"
Sunlit
Object was in daylight at epoch
Visualization orbit readout
Latitude
Unknown
Longitude
Unknown
Altitude
Unknown
Speed
Unknown
Apparent Right ascension
Unknown
Apparent Declination
Unknown
Sunlit
N/A
Visualization observer readout
Local Sidereal Time
21:40:02
Azimuth
Unknown
Elevation
Unknown
Doppler factor
Unknown
Orbital elements
Apogee altitude
35,804.044 km
Perigee altitude
35,771.416 km
Semi-major axis
42,165.867 km
Eccentricity
0.00039
Inclination
0.0624°
RAAN
352.8456°
Arg. of periapsis
93.5427°
True anomaly
314.73921°
Mean anomaly
314.7707°
Eccentric anomaly
314.75496°
Mean motion
0.25067 °/min
Orbital period
1,436.15 mins
BSTAR
0
Loading maneuver chart data...
Computing Atmospheric mass density...
Loading historical data...
Loading historical data...
Loading historical data...
Loading historical data...
Loading historical data...
Loading historical data...
Loading historical data...
Other satellites on launch #39 in the year 2015 (2015-08-20 UTC)

Documentation

Showing up to 5 results
|